TimeEST,TemperatureF,Dew PointF,Humidity,Sea Level PressureIn,VisibilityMPH,Wind Direction,Wind SpeedMPH,Gust SpeedMPH,PrecipitationIn,Events,Conditions,WindDirDegrees,DateUTC
12:56 AM,45.0,32.0,60,30.22,10.0,West,9.2,-,N/A,,Clear,270,2013-01-10 05:56:00
2:56 AM,45.0,27.0,49,30.28,10.0,West,11.5,-,N/A,,Clear,280,2013-01-10 07:56:00
3:56 AM,44.1,26.1,49,30.30,10.0,WNW,10.4,18.4,N/A,,Clear,290,2013-01-10 08:56:00
4:56 AM,42.1,24.1,49,30.31,10.0,WNW,12.7,-,N/A,,Clear,290,2013-01-10 09:56:00
5:56 AM,41.0,24.1,51,30.35,10.0,West,6.9,-,N/A,,Clear,280,2013-01-10 10:56:00
6:56 AM,37.9,24.1,57,30.40,10.0,WNW,4.6,-,N/A,,Clear,290,2013-01-10 11:56:00
7:56 AM,37.0,25.0,62,30.44,10.0,Calm,Calm,-,N/A,,Clear,0,2013-01-10 12:56:00
8:56 AM,44.1,27.0,51,30.46,10.0,NNW,5.8,-,N/A,,Clear,330,2013-01-10 13:56:00
9:56 AM,45.0,21.9,40,30.48,10.0,NW,17.3,20.7,N/A,,Clear,320,2013-01-10 14:56:00
10:56 AM,46.0,21.9,39,30.47,10.0,NW,10.4,19.6,N/A,,Clear,310,2013-01-10 15:56:00
11:56 AM,46.0,21.0,37,30.43,10.0,NW,21.9,27.6,N/A,,Clear,320,2013-01-10 16:56:00
12:56 PM,46.9,21.0,36,30.42,10.0,NW,18.4,-,N/A,,Clear,320,2013-01-10 17:56:00
1:56 PM,48.0,21.9,36,30.44,10.0,NNW,16.1,23.0,N/A,,Clear,330,2013-01-10 18:56:00
2:56 PM,48.0,21.9,36,30.45,-9999.0,NW,15.0,23.0,N/A,,Unknown,310,2013-01-10 19:56:00
3:56 PM,46.9,21.9,37,30.47,10.0,NNW,15.0,21.9,N/A,,Clear,330,2013-01-10 20:56:00
4:56 PM,44.1,21.9,42,30.49,10.0,NNW,3.5,-,N/A,,Clear,340,2013-01-10 21:56:00
5:56 PM,36.0,23.0,59,30.51,10.0,NNW,4.6,-,N/A,,Clear,340,2013-01-10 22:56:00
6:56 PM,34.0,21.9,61,30.53,10.0,Calm,Calm,-,N/A,,Clear,0,2013-01-10 23:56:00
7:56 PM,30.9,21.9,69,30.54,10.0,NW,6.9,-,N/A,,Clear,320,2013-01-11 00:56:00
8:56 PM,36.0,24.1,62,30.55,10.0,North,6.9,-,N/A,,Clear,350,2013-01-11 01:56:00
9:56 PM,39.0,23.0,53,30.54,10.0,North,6.9,-,N/A,,Clear,360,2013-01-11 02:56:00
10:56 PM,37.9,24.1,57,30.54,10.0,Calm,Calm,-,N/A,,Clear,0,2013-01-11 03:56:00